Weather in Nadi

Fiji     17°46′29″S   177°25′57″E
temp.,
°C
wind,
m/s
gust,
m/s
humid.,
%
clouds,
%
prec.,
mm/h
press.,
hPa
HPBL,
m
16 april, fri
fri1600:00+23ese119449 0.1 101244
03:00+22se119524 0.1 101131
06:00+22ese12978 0.1 101240
09:00+28ne11702 0.0 1013587
12:00+31wnw225753 0.1 10111483
15:00+26wnw238717 1.9 1010546
18:00+23n11958 4.1 101135
21:00+22ene11968 0.3 101343
17 april, sat
sat1700:00+22ese119711 0.3 101266
03:00+22ese119748 0.1 101163
06:00+21ese129722 0.3 101248
09:00+26e127818 0.0 1013358
12:00+31wnw225223 0.1 10111472
15:00+28nw226749 0.3 1009833
18:00+24nnw129026 1.3 101049
21:00+23se119420 0.4 101238
18 april, sun
sun1800:00+22ese119736 0.5 101241
03:00+21ese129718 0.0 101053
06:00+21ese129695 0.0 101157
09:00+26ese127479 0.0 1013499
12:00+28wnw116995 0.5 1010615
15:00+27nw118287 3.8 1010567
18:00+23sse1194100 6.9 101130
21:00+22ese1297100 0.6 101248
19 april, mon
mon1900:00+22e229788 0.6 101258
03:00+21ese229770 0.0 101157
06:00+21e229738 0.0 101262
09:00+26ese12787 0.0 1013473
12:00+27nw128893 0.9 1012377
15:00+26wsw11887 4.9 1011395
18:00+24sse11954 8.1 101246
21:00+22e229712 0.0 101451
20 april, tue
tue2000:00+21ese22975 0.0 101441
03:00+21e129656 0.0 101340
06:00+21e229675 0.0 101445
09:00+27se11758 0.0 1015383
12:00+29w126494 0.1 1013999
15:00+28wnw1073100 1.1 1012688
18:00+24nne0088100 1.2 101326
21:00+23e129478 0.0 101443